EW5790 Weather Reports


Display with metric or nautical units.
time (UTC)temp
F
wind
direction
speed
MPH
gust
MPH
rain 1hr
in
rain 24hr
in
rain mn
in
humidity
%
barometer
mb
20260901094507 68 319 0.0 0.0 0.00 0.00 0.00 1 1017.8
20260901093001 68 319 0.0 0.0 0.00 0.00 0.00 1 1017.6
20260901091558 68 319 0.0 0.0 0.00 0.00 0.00 1 1017.6
20260901090053 68 319 0.0 0.0 0.00 0.00 0.00 1 1017.6
20260901084548 68 319 0.0 0.0 0.00 0.00 0.00 1 1017.6
20260901083044 69 319 0.0 0.0 0.00 0.00 0.00 1 1017.5
20260901081543 69 319 0.0 0.0 0.00 0.00 0.00 1 1017.5
20260901080036 69 319 0.0 0.0 0.00 0.00 0.00 1 1017.6
20260901074532 69 319 0.0 0.0 0.00 0.00 0.00 1 1017.7
20260901073028 69 319 0.0 0.0 0.00 0.00 0.00 1 1017.7
20260901071525 69 319 0.0 0.0 0.00 0.00 0.00 1 1017.7
20260901070018 69 319 0.0 0.0 0.00 0.00 0.00 1 1017.9
20260901064514 70 319 0.0 0.0 0.00 0.00 0.00 1 1017.9
20260901063015 70 319 0.0 0.0 0.00 0.00 0.00 1 1018.0
20260901061505 70 319 0.0 0.0 0.00 0.00 0.00 1 1018.0
20260901060001 70 319 0.0 0.0 0.00 0.00 0.00 1 1018.2
20260901054556 70 319 0.0 0.0 0.00 0.00 0.00 1 1018.2
20260901053053 71 319 0.0 0.0 0.00 0.00 0.00 1 1018.4
20260901051548 71 319 0.0 0.0 0.00 0.00 0.00 1 1018.4
20260901050044 71 319 0.0 0.0 0.00 0.00 0.00 1 1018.3
20260901044540 72 319 0.0 0.0 0.00 0.00 0.00 1 1018.2
20260901043037 72 319 0.0 0.0 0.00 0.00 0.00 1 1018.2
20260901041537 72 319 0.0 0.0 0.00 0.00 0.00 1 1018.2
20260901040028 72 319 0.0 0.0 0.00 0.00 0.00 1 1018.1
20260901034529 73 319 0.0 0.0 0.00 0.00 0.00 1 1018.1
20260901033019 73 319 0.0 0.0 0.00 0.00 0.00 1 1018.1
20260901031527 73 319 0.0 0.0 0.00 0.00 0.00 1 1018.1
20260901030011 73 319 0.0 0.0 0.00 0.00 0.00 1 1018.1
20260901024506 74 319 0.0 0.0 0.00 0.00 0.00 1 1018.0
20260901023005 74 319 0.0 0.0 0.00 0.00 0.00 1 1017.9
20260901021558 74 319 0.0 0.0 0.00 0.00 0.00 1 1017.8
20260901020054 74 319 0.0 0.0 0.00 0.00 0.00 1 1017.7
20260901014549 75 319 0.0 0.0 0.00 0.00 0.00 1 1017.5
20260901013103 75 319 0.0 0.0 0.00 0.00 0.00 1 1017.4
20260901011541 76 319 0.0 0.0 0.00 0.00 0.00 1 1017.0
20260901010036 77 319 0.0 0.0 0.00 0.00 0.00 5 1016.8
20260901004531 78 319 0.0 0.0 0.00 0.00 0.00 16 1016.7
20260901003027 80 319 0.0 0.0 0.00 0.00 0.00 29 1016.6
20260901001522 82 319 0.0 0.0 0.00 0.00 0.00 47 1016.5
20260901000025 85 319 0.0 0.0 0.00 0.00 0.00 57 1016.5
20260831234513 87 319 0.0 0.0 0.00 0.00 0.00 61 1016.5
20260831233010 88 319 0.0 0.0 0.00 0.00 0.00 60 1016.6
20260831231505 88 319 0.0 0.0 0.00 0.00 0.00 60 1016.7
20260831230101 88 319 0.0 0.0 0.00 0.00 0.00 62 1016.6
20260831224555 88 294 0.0 0.0 0.00 0.00 0.00 61 1016.7
20260831223052 87 294 0.0 0.0 0.00 0.00 0.00 60 1016.9
20260831221600 87 293 0.0 0.0 0.00 0.00 0.00 60 1016.9
20260831220044 87 293 0.0 0.0 0.00 0.00 0.00 63 1017.0
20260831214540 88 292 0.0 0.0 0.00 0.00 0.00 64 1017.1
20260831213134 89 292 0.0 0.0 0.00 0.00 0.00 64 1017.2
20260831154538 89 269 0.0 0.0 0.00 0.00 0.00 61 1019.8
20260831153033 88 25 0.0 0.0 0.00 0.00 0.00 62 1019.8
20260831151529 88 304 0.0 0.0 0.00 0.00 0.00 62 1019.9
20260831150026 87 281 0.0 0.0 0.00 0.00 0.00 62 1020.0
20260831144520 85 329 0.0 0.0 0.00 0.00 0.00 62 1019.9
20260831143018 84 266 0.0 0.0 0.00 0.00 0.00 61 1019.8
20260831141511 83 349 0.0 0.0 0.00 0.00 0.00 55 1019.7
20260831140014 81 284 0.0 0.0 0.00 0.00 0.00 47 1019.9
20260831134502 79 5 0.0 0.0 0.00 0.00 0.00 32 1019.9
20260831133058 76 5 0.0 0.0 0.00 0.00 0.00 1 1019.9
20260831131559 75 5 0.0 0.0 0.00 0.00 0.00 1 1020.0
20260831130052 74 5 0.0 0.0 0.00 0.00 0.00 1 1020.0
20260831124547 72 5 0.0 0.0 0.00 0.00 0.00 1 1020.0
20260831123040 70 5 0.0 0.0 0.00 0.00 0.00 1 1019.9
20260831121537 70 5 0.0 0.0 0.00 0.00 0.00 1 1019.7
20260831120033 68 126 0.0 0.0 0.00 0.00 0.00 1 1019.5
20260831114531 67 126 0.0 0.0 0.00 0.00 0.00 1 1019.5
20260831113022 67 126 0.0 0.0 0.00 0.00 0.00 1 1019.3
20260831111521 67 126 0.0 0.0 0.00 0.00 0.00 1 1019.1
20260831110014 67 126 0.0 0.0 0.00 0.00 0.00 1 1018.9
20260831104512 68 126 0.0 0.0 0.00 0.00 0.00 1 1018.8
20260831103005 68 126 0.0 0.0 0.00 0.00 0.00 1 1018.6
20260831101505 68 126 0.0 0.0 0.00 0.00 0.00 1 1018.4
20260831100104 68 126 0.0 0.0 0.00 0.00 0.00 1 1018.5